STARLINK-30563, 58042

Orbit data source: Space-Track

STARLINK-30563, 58042 is a payload satellite owned by SpaceX/Seattle (US) in LEO that was launched on Mon, 09 Oct 2023 UTC via an FALCON 9 launch vehicle from the Air Force Western Test Range (AFWTR). Payload-class satellites include a variety of spacecraft equipped with specific instruments for various scientific and technological missions. These include communications satellites like Starlink; space stations such as the ISS; scientific satellites like the Hubble; Earth observation satellites from companies like Planet Labs, Umbra, and HawkEye 360; GPS; miniature CubeSats for education and research; and military/defense satellites.

Loading next visibility...
Identifier
58042, 2023-156Q
Orbit
LEO
Country
Flag of USUS
Related business
Manufacturer
SpaceX/Seattle
Mission
Operational Commercial Communications
Bus & Motor
STARLINK V2M, Unknown motor
Mass
730 kg wet, ~700 kg dry
Launch date (UTC)
2023-10-09 (2 years ago)
Launch vehicle
FALCON 9
Launch site
Air Force Western Test Range (AFWTR)
Object type
Payload
Rocket body
Debris
Shape & HBR
Box + 2 Pan, 17.7 m
Radar Cross Section
33.884 m², Large (>1 m²)

Expand to show TLE details & history
Last TLE update: 1 day ago

TLE from 1 day ago
0 STARLINK-30563
1 58042U 23156Q   25348.73518584 -.00001030  00000-0 -22658-4 0  9992
2 58042  53.1601 110.3635 0001393  99.3919 260.7240 15.30185013123343
Epoch: 2025-12-14T17:38Z
TLE epoch observation values (Epoch: 2025-12-14T17:38:40.056Z)
Latitude
0.00003°
Longitude
122.05278°
Altitude
476.314 km
Speed
7.629 km/s
True Right ascension
07h 21m 27s
True Declination
0° 00' 00"
Sunlit
Object was in full shadow at epoch
Visualization orbit readout
Latitude
Unknown
Longitude
Unknown
Altitude
Unknown
Speed
Unknown
Apparent Right ascension
Unknown
Apparent Declination
Unknown
Sunlit
N/A
Visualization observer readout
Local Sidereal Time
17:23:09
Azimuth
Unknown
Elevation
Unknown
Doppler factor
Unknown
Orbital elements
Apogee altitude
476.471 km
Perigee altitude
474.562 km
Semi-major axis
6,853.653 km
Eccentricity
0.00014
Inclination
53.1601°
RAAN
110.3635°
Arg. of periapsis
99.3919°
True anomaly
260.70825°
Mean anomaly
260.724°
Eccentric anomaly
260.71612°
Mean motion
3.82525 °/min
Orbital period
94.11 mins
BSTAR
-0.000022658
Loading maneuver chart data...
Computing Atmospheric mass density...
Loading historical data...
Loading historical data...
Loading historical data...
Loading historical data...
Loading historical data...
Loading historical data...
Loading historical data...

Documentation

Showing up to 5 results
|